Regional Weather Roundup
Issued by NWS Raleigh/Durham, NC

Home | Current Version | Previous Version | Text Only | Print | Product List | Glossary On
Versions: 1 2 3 4 5 6 7 8 9 10 11 12 13 14 15 16 17 18 19 20 21 22 23 24 25 26 27 28 29 30 31 32 33 34 35 36 37 38 39 40 41 42 43 44 45 46 47 48 49 50
000
ASUS42 KRAH 260410
RWRRAH
NORTH CAROLINA WEATHER ROUNDUP
NATIONAL WEATHER SERVICE RALEIGH NC
1200 AM EDT SUN MAR 26 2017

NOTE: "FAIR" INDICATES FEW OR NO CLOUDS BELOW 12,000 FEET WITH NO
SIGNIFICANT WEATHER AND/OR OBSTRUCTIONS TO VISIBILITY.

NCZ001-053-055-056-065-067-260500-
WESTERN NORTH CAROLINA

CITY           SKY/WX    TMP DP  RH WIND       PRES   REMARKS
ASHEVILLE      CLEAR     56  46  69 S6        30.19F
JEFFERSON      PTCLDY    52  45  77 CALM      30.22F
MORGANTON      CLOUDY    60  51  72 CALM      30.23F
HICKORY        MOCLDY    62  49  62 CALM      30.19F
RUTHERFORDTON  CLOUDY    61  49  65 CALM      30.19S
MOUNT AIRY     CLEAR     60  49  67 SE3       30.22S
BOONE          CLEAR     51  43  76 CALM      30.23F
$$

NCZ021-022-025-041-071-084-088-260500-
CENTRAL NORTH CAROLINA

CITY           SKY/WX    TMP DP  RH WIND       PRES   REMARKS
CHARLOTTE      PTCLDY    63  50  62 S16       30.21S
GREENSBORO     PTCLDY    60  49  66 S7        30.20S
WINSTON-SALEM  CLEAR     61  46  57 S5        30.21F
RALEIGH-DURHAM CLOUDY    64  50  60 S12G17    30.23S
FORT BRAGG     CLOUDY    63  53  69 SE5       30.23F
FAYETTEVILLE   CLOUDY    62  53  72 S6        30.24F
BURLINGTON     CLOUDY    64  49  57 S9        30.21R
LAURINBURG       N/A    N/A N/A N/A MISG      30.24F
$$

NCZ011-015-027-028-043-044-047-080-103-260500-
NORTHEASTERN NORTH CAROLINA

CITY           SKY/WX    TMP DP  RH WIND       PRES   REMARKS
ROCKY MT-WILSO CLOUDY    61  53  75 S6        30.24S
GREENVILLE     CLOUDY    63  55  77 S8        30.26S
WASHINGTON     CLOUDY    60  54  79 S3        30.26F
ELIZABETH CITY PTCLDY    60  52  74 SW10      30.25S
MANTEO         PTCLDY    56  52  85 SW5       30.27S
CAPE HATTERAS  PTCLDY    63  55  75 W5        30.28S HAZE
$$

NCZ078-087-090-091-093-098-101-260500-
SOUTHEASTERN NORTH CAROLINA

CITY           SKY/WX    TMP DP  RH WIND       PRES   REMARKS
LUMBERTON      PTCLDY    60  55  83 SE5       30.24F
GOLDSBORO      CLOUDY    62  55  79 CALM      30.24S
KINSTON        CLOUDY    60  54  80 S5        30.26F
KENANSVILLE    PTCLDY    55  50  82 CALM      30.26F
NEW BERN       CLOUDY    56  54  93 CALM      30.28S
CHERRY POINT   NOT AVBL
BEAUFORT       PTCLDY    60  57  89 CALM      30.27F
JACKSONVILLE   PTCLDY    58  56  93 CALM      30.26F
WILMINGTON     CLOUDY    61  56  83 SE3       30.26S
$$




USA.gov is the U.S. government's official web portal to all federal, state and local government web resources and services.